Regional Weather Roundup
Issued by NWS

Home | Current Version | Previous Version | Text Only | Print | Product List | Glossary Off
Versions: 1 2 3 4 5 6 7 8 9 10 11 12 13 14 15 16 17 18 19 20 21 22 23 24 25 26 27 28 29 30 31 32 33 34 35 36 37 38 39 40 41 42 43 44 45 46 47 48 49 50

000
ASUS45 KBOU 021707
RWRCO

WEATHER ROUNDUP FOR COLORADO
NATIONAL WEATHER SERVICE DENVER/BOULDER CO
1000 AM MST FRI DEC 02 2016

NOTE: "FAIR" INDICATES FEW OR NO CLOUDS BELOW 12000 FEET WITH NO
SIGNIFICANT WEATHER AND/OR OBSTRUCTIONS TO VISIBILITY.

COZ001>005-013-030-031-021800-
...NORTHWEST COLORADO...

CITY           SKY/WX    TMP DP  RH WIND       PRES   REMARKS
CRAIG          CLOUDY    18  14  84 CALM      30.16R
HAYDEN         PTSUNNY   14   9  79 W6        30.12S WCI   5
MEEKER         CLOUDY    19  18  95 CALM      30.12R
MOUNT WERNER   NOT AVBL
STEAMBOAT SPGS CLOUDY    14   7  74 NW3       30.10S
WALDEN           N/A     14  12  92 NW3       30.10R
$$

COZ006>008-011-021800-
...WEST CENTRAL VALLEYS...

CITY           SKY/WX    TMP DP  RH WIND       PRES   REMARKS
GRAND JUNCTION CLOUDY    33  23  66 S6        30.11R WCI  28
MONTROSE       PTSUNNY   28  16  60 S6        30.12R WCI  22
EAGLE          MOSUNNY   28  21  74 CALM      30.11S
RIFLE          PTSUNNY   28  21  75 CALM      30.11R
DELTA          NOT AVBL
NUCLA          CLOUDY    28  16  59 CALM      30.10R
$$

COZ017>023-064>068-021800-
...SOUTHWEST COLORADO...

CITY           SKY/WX    TMP DP  RH WIND       PRES   REMARKS
DURANGO        CLOUDY    34  20  56 VRB3      30.01R
CORTEZ         CLOUDY    30  18  60 CALM      30.02R
PAGOSA SPRINGS FAIR      28  15  58 E5        30.04R WCI  22
TELLURIDE      CLOUDY    20  11  69 CALM      30.00R
WOLF CREEK PAS CLOUDY    12   9  85 S9        30.03R WCI   0
$$

COZ009-010-012-014-032>034-037-058>063-021800-
...CENTRAL COLORADO...

CITY           SKY/WX    TMP DP  RH WIND       PRES   REMARKS
ASPEN          FAIR      19  10  68 CALM      30.03S
BUENA VISTA    LGT SNOW  19   9  65 CALM      30.11R
COPPER MTN     FAIR      18   7  62 MISG      29.97R
BERTHOUD PASS  CLOUDY     1 -11  55 E30       29.96S WCI -24
COTTONWOOD PAS LGT SNOW  19  14  79 CALM      30.04S
GUNNISON       FLURRIES  14   8  77 CALM      30.07R
KREMMLING      CLOUDY    23  18  80 CALM      30.11R
LEADVILLE      CLOUDY    15   7  70 CALM      30.01R
MONARCH PASS     N/A      9   3  78 E5        30.10R WCI   0
SALIDA         CLOUDY    19  11  73 CALM      30.20R
SUNLIGHT       LGT SNOW N/A N/A N/A CALM      30.03R
WILKERSON PASS LGT SNOW   9   3  78 E6        30.05R WCI  -1
$$

COZ069>075-021800-
...SAN LUIS VALLEY/SANGRE DE CRISTO MOUNTAINS...

CITY           SKY/WX    TMP DP  RH WIND       PRES   REMARKS
ALAMOSA        CLOUDY    18  10  71 NW6       30.08R WCI  10
LA VETA PASS   LGT SNOW  14  10  85 SW10      30.05R VSB 1   WCI   1
SAGUACHE       CLOUDY    23  10  58 NW9       30.07R WCI  13
$$

COZ035-036-038>040-021800-
...NORTHERN COLORADO FRONT RANGE...

CITY           SKY/WX    TMP DP  RH WIND       PRES   REMARKS
DENVER INTL AP CLOUDY    30  16  56 E5        30.20R WCI  25
DMNS CITY PARK   N/A     30  12  46 NE2G8     30.20S
AURORA         CLOUDY    28  14  54 SE5       30.19R WCI  23
FRONT RANGE AP NOT AVBL
ERIE MUNI ARPT CLOUDY    33  19  56 SE7       30.20S WCI  27
BOULDER MUN AP CLOUDY    32  21  64 SW3       30.20R
CENTENNIAL     CLOUDY    27  12  53 NE5       30.18R WCI  22
BROOMFIELD     CLOUDY    32  18  55 E8        30.20R WCI  25
FORT COLLINS   FAIR      30  16  55 S5        30.21R WCI  25
LONGMONT       CLOUDY    36  19  50 S5        30.23R
$$

COZ041-046-047-076>085-087-088-021800-
...PIKES PEAK/PALMER DIVIDE AND SOUTHERN FOOTHILLS...

CITY           SKY/WX    TMP DP  RH WIND       PRES   REMARKS
COLO. SPRINGS  CLOUDY    31   8  38 E3        30.17R
A. F. ACADEMY  CLOUDY    28   9  45 NW3       30.15R
SCHRIEVER AFB  NOT AVBL
ELLICOTT       CLOUDY   N/A N/A N/A MISG      30.15R
FALCON         CLOUDY    28   8  43 E6        30.16R WCI  22
FORT CARSON    CLOUDY    31   9  39 N8        30.16R WCI  23
LIMON          CLOUDY    31  18  58 W3        30.19R
MONUMENT HILL  FAIR      23  10  58 N3        30.15S
TRINIDAD       CLOUDY    31   9  39 NW5       30.17R WCI  26
$$

COZ042>045-048>051-090-091-021800-
...NORTHEAST COLORADO...

CITY           SKY/WX    TMP DP  RH WIND       PRES   REMARKS
GREELEY ARPT   FAIR      27  17  66 CALM      30.24R
AKRON          CLOUDY    32  17  54 NE5       30.21R WCI  27
BURLINGTON     FAIR      34  18  52 N6        30.21R WCI  29
WRAY           NOT AVBL
STERLING       CLOUDY    28  21  74 CALM      30.24R
HOLYOKE        FAIR      37  27  65 N5        30.25R
FORT MORGAN    CLOUDY    31  20  63 W6        30.24R WCI  26
$$

COZ086-089-092>099-021800-
...SOUTHEAST COLORADO...

CITY           SKY/WX    TMP DP  RH WIND       PRES   REMARKS
PUEBLO         CLOUDY    28  13  53 SW3       30.20R
LA JUNTA       CLOUDY    25  14  63 CALM      30.22R
LAMAR          CLOUDY    29  15  56 SW5       30.22R WCI  24
SPRINGFIELD      N/A     40  15  36 E9        30.18R
$$



USA.gov is the U.S. government's official web portal to all federal, state and local government web resources and services.